OIFS  Shahrekord Airport

Add Bookmark

Shahrekord, Iran

Status IATA
Operational CQD
Latitude Longitude
32° 17' 49" N 50° 50' 31" E
32.297199 50.842201
Local (DST + 5) UTC (GMT + 4)
Oct 24, 2014 07:34 Oct 24, 2014 16:04
Sunrise-Sunset Local UTC
Begin Civil Twilight 05:51 02:21
Sunrise 06:16 02:46
Sunset 05:25 13:55
End Civil Twilight 05:50 14:20

Current Weather

METAR Observed VFR
OIFS 241500Z 10004KT CAVOK 14/M08 Q1023 Fri, Oct 24, 2014 @ 15:00 UTC
(1 Hour, 4 Minutes ago)
Visual Flight Rules
Wind Visibility Clouds Conditions
100° at 4 knots (7 kph) 10 km or more
  • Clear skies
  • No significant weather
Temperatures Readings Precipitation
Current Temp 14°C (57°F)
Dewpoint -8°C (18°F)
Humidity 21%
Altimeter 30.21"Hg
Sea Level Pressure 1023mb
Field Elevation 6817.59'
None Recorded

Additional weather within a 185.2km radius of OIFS

Map ICAO Location
OIFM 108km E (062°)
OIAI 151.5km W (258°)

24 Hour Weather History

Loading
-

24 Hour Weather Graphs

Loading
-

CheckWX.com is intended as a tool to help pilots better visualize weather data. It is not intended as a substitute for an official weather briefing obtained from a Flight Service Station. CheckWX.com does not meet the FAA requirements for an official pre-flight weather briefing. Therefore, it's important that pilots still call and obtain an official FSS pre-flight weather briefing.